This is the latest recevied weather packets stored in our database for station/object SALT. If no packets are shown the sender has not sent any weather packets the latest 10 day(s).
| Time | Temp. | Humidity | Pressure | Rain* | Wind** | Luminosity | Snow |
|---|---|---|---|---|---|---|---|
| 1777927000 | 16.67° C | 30% | 1012.9 hPa | 0 mm | - | - | - |
| 1777926397 | 16.11° C | 28% | 1013 hPa | 0 mm | - | - | - |
| 1777925794 | 16.11° C | 26% | 1012.8 hPa | 0 mm | - | - | - |
| 1777925192 | 16.67° C | 30% | 1012.9 hPa | 0 mm | - | - | - |
| 1777924589 | 16.11° C | 34% | 1013 hPa | 0 mm | - | - | - |
| 1777923381 | 16.11° C | 32% | 1013.1 hPa | 0 mm | - | - | - |
| 1777922778 | 16.11° C | 37% | 1013.1 hPa | 0 mm | - | - | - |
| 1777922175 | 15.56° C | 37% | 1013.2 hPa | 0 mm | - | - | - |
| 1777921574 | 15.56° C | 36% | 1013.2 hPa | 0 mm | - | - | - |
| 1777920971 | 15.56° C | 36% | 1013.3 hPa | 0 mm | - | - | - |
| 1777920368 | 15.56° C | 39% | 1013.2 hPa | 0 mm | - | - | - |
| 1777919764 | 15.56° C | 40% | 1013.2 hPa | 0 mm | - | - | - |
| 1777919161 | 15.56° C | 38% | 1013.3 hPa | 0 mm | - | - | - |
| 1777918558 | 15° C | 38% | 1013.3 hPa | 0 mm | - | - | - |
| 1777917956 | 15° C | 39% | 1013.5 hPa | 0 mm | - | - | - |
| 1777917353 | 15° C | 41% | 1013.4 hPa | 0 mm | - | - | - |
| 1777916750 | 15° C | 42% | 1013.4 hPa | 0 mm | - | - | - |
| 1777916145 | 14.44° C | 44% | 1013.4 hPa | 0 mm | - | - | - |
| 1777915543 | 14.44° C | 43% | 1013.4 hPa | 0 mm | - | - | - |
| 1777914338 | 14.44° C | 43% | 1013.3 hPa | 0 mm | - | - | - |
| 1777913735 | 14.44° C | 42% | 1013.4 hPa | 0 mm | - | - | - |
| 1777913132 | 13.89° C | 42% | 1013.4 hPa | 0 mm | - | - | - |
| 1777912528 | 13.89° C | 41% | 1013.4 hPa | 0 mm | - | - | - |
| 1777911924 | 13.89° C | 43% | 1013.5 hPa | 0 mm | - | - | - |
| 1777911322 | 13.89° C | 42% | 1013.5 hPa | 0 mm | - | - | - |
* Rain latest 24 hours (hover to see other rain measurements)
** Current wind speed in m/s (hover to see current wind gust speed)